FW1757 Weather Reports


time (UTC)temp
F
wind
direction
speed
knots
gust
knots
rain 1hr
in
rain 24hr
in
rain mn
in
humidity
%
barometer
mb
20260906152019 54 225 0.0 0.0 0.16 0.20 0.20 1 1015.3
20260906151514 54 225 0.0 0.0 0.15 0.19 0.19 1 1015.2
20260906151012 54 225 0.0 0.0 0.13 0.17 0.17 1 1015.1
20260906150511 54 225 0.0 0.0 0.12 0.16 0.16 1 1015.0
20260906150013 54 225 0.0 0.0 0.10 0.14 0.14 1 1015.0
20260906145509 54 225 0.0 0.0 0.10 0.13 0.13 1 1015.1
20260906145009 54 225 0.0 0.0 0.09 0.12 0.12 1 1015.1
20260906144506 54 225 0.0 0.0 0.07 0.10 0.10 1 1015.0
20260906144007 54 225 0.0 0.0 0.06 0.09 0.09 1 1014.9
20260906143503 54 225 0.0 0.0 0.06 0.08 0.08 1 1014.9
20260906143001 54 225 0.0 0.0 0.04 0.06 0.06 1 1014.7
20260906142600 54 225 0.0 0.0 0.03 0.05 0.05 1 1014.7
20260906142058 54 225 0.0 0.0 0.02 0.04 0.04 1 1014.5
20260906141600 54 225 0.0 0.0 0.02 0.04 0.04 1 1014.5
20260906141055 54 225 0.0 0.0 0.02 0.04 0.04 1 1014.5
20260906140557 54 225 0.0 0.0 0.02 0.04 0.04 1 1014.4
20260906140103 54 225 0.0 0.0 0.02 0.04 0.04 1 1014.3
20260906135552 54 224 0.0 0.0 0.01 0.03 0.03 1 1014.3
20260906135054 54 225 0.0 0.0 0.01 0.03 0.03 1 1014.2
20260906134602 54 225 0.0 0.0 0.01 0.03 0.03 1 1014.1
20260906134046 54 225 0.0 0.0 0.01 0.03 0.03 1 1014.1
20260906133544 54 225 0.0 0.0 0.00 0.02 0.02 1 1014.0
20260906133044 54 225 0.0 0.0 0.00 0.02 0.02 1 1014.0
20260906132544 54 225 0.0 0.0 0.00 0.02 0.02 1 1014.0
20260906132040 54 225 0.0 0.0 0.00 0.02 0.02 1 1013.8
20260906131539 54 225 0.0 0.0 0.00 0.02 0.02 1 1013.8
20260906131038 54 225 0.0 0.0 0.00 0.02 0.02 1 1014.0
20260906130537 54 225 0.0 0.0 0.00 0.02 0.02 1 1013.7
20260906130034 54 225 0.0 0.0 0.00 0.02 0.02 1 1013.8
20260906125536 54 225 0.0 0.0 0.00 0.02 0.02 1 1013.7
20260906125031 54 225 0.0 0.0 0.00 0.02 0.02 1 1013.9
20260906124530 54 225 0.0 0.0 0.00 0.02 0.02 1 1013.8
20260906124028 54 225 0.0 0.0 0.00 0.02 0.02 1 1013.8
20260906123526 55 225 0.0 0.0 0.00 0.02 0.02 1 1013.8
20260906123032 55 225 0.0 0.0 0.00 0.02 0.02 1 1013.9
20260906122526 55 225 0.0 0.0 0.00 0.02 0.02 1 1013.9
20260906122025 55 225 0.0 0.0 0.00 0.02 0.02 1 1014.1
20260906121527 55 225 0.0 0.0 0.00 0.02 0.02 1 1014.1
20260906121020 55 225 0.0 0.0 0.00 0.02 0.02 1 1013.9
20260906120518 55 225 0.0 0.0 0.00 0.02 0.02 1 1014.0
20260906120016 55 225 0.0 0.0 0.00 0.02 0.02 1 1014.0
20260906115515 55 225 0.0 0.0 0.00 0.02 0.02 1 1014.1
20260906115013 55 225 0.0 0.0 0.00 0.02 0.02 1 1014.2
20260906114532 55 225 0.0 0.0 0.00 0.02 0.02 1 1014.2
20260906114011 55 225 0.0 0.0 0.00 0.02 0.02 1 1014.2
20260906113509 55 225 0.0 0.0 0.00 0.02 0.02 1 1014.2
20260906113008 55 225 0.0 0.0 0.00 0.02 0.02 1 1014.1
20260906112506 55 225 0.0 0.0 0.00 0.02 0.02 1 1014.2
20260906112005 55 225 0.0 0.0 0.00 0.02 0.02 1 1014.1
20260906111503 55 225 0.0 0.0 0.00 0.02 0.02 1 1014.1
20260906111001 55 225 0.0 0.0 0.00 0.02 0.02 1 1014.2
20260906110601 55 225 0.0 0.0 0.00 0.02 0.02 1 1014.1
20260906110058 55 225 0.0 0.0 0.01 0.02 0.02 1 1014.1
20260906105557 55 225 0.0 0.0 0.01 0.02 0.02 1 1014.1
20260906105057 55 225 0.0 0.0 0.01 0.02 0.02 1 1014.2
20260906104554 56 225 0.0 0.0 0.01 0.02 0.02 1 1014.1
20260906104053 56 225 0.0 0.0 0.01 0.02 0.02 1 1014.3
20260906103552 56 225 0.0 0.0 0.01 0.02 0.02 1 1014.2
20260906103051 56 225 0.0 0.0 0.01 0.02 0.02 1 1014.5
20260906102549 56 225 0.0 0.0 0.01 0.02 0.02 1 1014.4
20260906102050 56 225 0.0 0.0 0.01 0.02 0.02 1 1014.5
20260906101546 56 360 0.0 0.0 0.01 0.02 0.02 1 1014.5
20260906101047 56 225 0.0 0.0 0.02 0.02 0.02 1 1014.6
20260906100543 56 225 0.0 0.0 0.02 0.02 0.02 1 1014.6
20260906100041 56 225 0.0 0.0 0.01 0.01 0.01 1 1014.7
20260906095540 56 360 0.0 0.0 0.01 0.01 0.01 1 1014.7
20260906095038 56 225 0.0 0.0 0.01 0.01 0.01 1 1014.6
20260906094546 57 225 0.0 0.0 0.01 0.01 0.01 1 1014.7
20260906094036 57 225 0.0 0.0 0.01 0.01 0.01 1 1014.7
20260906093534 57 225 0.0 0.0 0.01 0.01 0.01 2 1014.7
20260906093033 57 225 0.0 0.0 0.01 0.01 0.01 8 1014.5
20260906092531 57 360 0.0 0.0 0.01 0.01 0.01 9 1014.4
20260906092030 57 225 0.0 0.0 0.01 0.01 0.01 9 1014.3
20260906091534 57 360 0.0 0.0 0.01 0.01 0.01 12 1014.4
20260906091028 57 360 0.0 0.0 0.00 0.00 0.00 12 1014.5
20260906090528 57 360 0.0 0.0 0.00 0.00 0.00 13 1014.4
20260906090027 57 360 0.0 0.0 0.00 0.00 0.00 15 1014.5
20260906085527 57 360 0.0 0.0 0.00 0.00 0.00 17 1014.5
20260906085027 57 360 0.0 0.0 0.00 0.00 0.00 18 1014.4
20260906084532 58 360 0.0 0.0 0.00 0.00 0.00 20 1014.3
20260906084025 58 360 0.0 0.0 0.00 0.00 0.00 22 1014.3
20260906083526 58 360 0.0 0.0 0.00 0.00 0.00 23 1014.5
20260906083024 58 360 0.0 0.0 0.00 0.00 0.00 28 1014.3
20260906082523 58 360 0.0 0.0 0.00 0.00 0.00 32 1014.3
20260906082022 58 360 0.0 0.0 0.00 0.00 0.00 32 1014.3
20260906081528 58 360 0.0 0.0 0.00 0.00 0.00 31 1014.3
20260906081022 58 360 0.0 0.0 0.00 0.00 0.00 32 1014.4
20260906080522 58 360 0.0 0.0 0.00 0.00 0.00 35 1014.4
20260906080021 58 360 0.0 0.0 0.00 0.00 0.00 36 1014.4
20260906075521 58 360 0.0 0.0 0.00 0.00 0.00 38 1014.4
20260906075023 58 360 0.0 0.0 0.00 0.00 0.00 37 1014.3
20260906074521 58 360 0.0 0.0 0.00 0.00 0.00 37 1014.4
20260906074020 58 360 0.0 0.0 0.00 0.00 0.00 36 1014.3
20260906073521 58 360 0.0 0.0 0.00 0.00 0.00 36 1014.4
20260906073022 57 360 0.0 0.0 0.00 0.00 0.00 36 1014.5
20260906072519 57 360 0.0 0.0 0.00 0.00 0.00 36 1014.4
20260906072019 57 360 0.0 0.0 0.00 0.00 0.00 36 1014.5
20260906071518 57 360 0.0 0.0 0.00 0.00 0.00 37 1014.5
20260906071017 57 360 0.0 0.0 0.00 0.00 0.00 37 1014.7
20260906070516 57 360 0.0 0.0 0.00 0.00 0.00 39 1014.6
20260906070016 57 360 0.0 0.0 0.00 0.00 0.00 38 1014.6
20260906065514 57 360 0.0 0.0 0.00 0.00 0.00 38 1014.6
20260906065013 57 360 0.0 0.0 0.00 0.00 0.00 39 1014.6
20260906064521 57 360 0.0 0.0 0.00 0.00 0.00 40 1014.8
20260906064010 57 360 0.0 0.0 0.00 0.00 0.00 43 1014.7
20260906063509 57 360 0.0 0.0 0.00 0.00 0.00 44 1014.6
20260906063007 58 360 0.0 0.0 0.00 0.00 0.00 45 1014.7
20260906062505 58 225 0.0 0.0 0.00 0.00 0.00 47 1014.8
20260906062004 58 225 0.0 0.0 0.00 0.00 0.00 49 1014.8
20260906061503 58 225 0.0 0.0 0.00 0.00 0.00 49 1014.8
20260906061001 58 225 0.0 0.0 0.00 0.00 0.00 50 1014.8
20260906060600 58 225 0.0 0.0 0.00 0.00 0.00 51 1014.8
20260906060147 59 225 0.0 0.0 0.00 0.00 0.00 52 1014.7
20260906055557 59 225 0.0 0.0 0.00 0.00 0.00 53 1014.8
20260906055056 59 225 0.0 0.0 0.00 0.00 0.00 54 1014.8
20260906054554 59 225 0.0 0.0 0.00 0.00 0.00 55 1014.8
20260906054055 59 225 0.0 0.0 0.00 0.00 0.00 56 1014.8
20260906053550 59 225 0.0 0.0 0.00 0.00 0.00 56 1014.7
20260906053049 60 225 0.0 0.0 0.00 0.00 0.00 57 1014.9
20260906052548 60 225 0.0 0.0 0.00 0.00 0.00 58 1014.9
20260906052047 60 225 0.0 0.0 0.00 0.00 0.00 58 1014.9
20260906051545 60 225 0.0 0.0 0.00 0.00 0.00 58 1015.0
20260906051045 60 231 0.0 0.0 0.00 0.00 0.00 59 1015.0
20260906050542 60 230 0.0 0.0 0.00 0.00 0.00 59 1014.9
20260906050041 60 238 0.0 0.0 0.00 0.00 0.00 59 1015.0
20260906045540 60 252 0.0 0.0 0.00 0.00 0.00 59 1015.0
20260906045038 60 252 0.0 0.0 0.00 0.00 0.00 60 1014.9
20260906044536 60 252 0.0 0.0 0.00 0.00 0.00 61 1015.0
20260906044037 60 252 0.0 0.0 0.00 0.00 0.00 60 1015.0
20260906043534 61 252 0.0 0.0 0.00 0.00 0.00 60 1014.9
20260906043038 61 252 0.0 0.0 0.00 0.00 0.00 60 1014.9
20260906042530 61 252 0.0 0.0 0.00 0.00 0.00 61 1015.0
20260906042030 61 252 0.0 0.0 0.00 0.00 0.00 61 1015.0
20260906041531 61 252 0.0 0.0 0.00 0.00 0.00 60 1014.9
20260906041027 61 253 0.0 0.0 0.00 0.00 0.00 62 1014.8
20260906040525 61 253 0.0 0.0 0.00 0.00 0.00 61 1014.9
20260906040033 61 254 0.0 0.0 0.00 0.00 0.00 62 1014.9
20260906035528 61 254 0.0 0.0 0.00 0.00 0.00 63 1014.8
20260906035020 61 260 0.0 0.0 0.00 0.00 0.00 64 1014.8
20260906034527 61 218 0.0 0.0 0.00 0.00 0.00 65 1014.8
20260906034018 61 218 0.0 0.0 0.00 0.00 0.00 65 1014.7
20260906033518 61 218 0.0 0.0 0.00 0.00 0.00 65 1014.7
20260906033018 62 218 0.0 0.0 0.00 0.00 0.00 65 1014.5
20260906032515 62 218 0.0 0.0 0.00 0.00 0.00 65 1014.5
20260906032017 63 218 0.0 0.0 0.00 0.00 0.00 65 1014.5
20260906031519 63 218 0.0 0.0 0.00 0.00 0.00 65 1014.4
20260906031011 64 218 0.0 0.0 0.00 0.00 0.00 64 1014.3
20260906030510 64 276 0.0 0.0 0.00 0.00 0.00 63 1014.4
20260906030008 65 276 0.0 0.0 0.00 0.00 0.00 62 1014.3
20260906025510 65 276 0.0 0.0 0.00 0.00 0.00 61 1014.3
20260906025005 66 276 0.0 0.0 0.00 0.00 0.00 61 1014.3
20260906024504 66 276 0.0 0.0 0.00 0.00 0.00 60 1014.3
20260906024002 67 276 0.0 0.0 0.00 0.00 0.00 60 1014.3
20260906023501 67 276 0.0 0.0 0.00 0.00 0.00 60 1014.3
20260906023111 67 276 0.0 0.0 0.00 0.00 0.00 59 1014.3
20260906022602 67 276 0.0 0.0 0.00 0.00 0.00 59 1014.4
20260906022057 68 276 0.0 0.0 0.00 0.00 0.00 59 1014.3
20260906021556 68 276 0.0 0.0 0.00 0.00 0.00 58 1014.3
20260906021053 68 276 0.0 0.0 0.00 0.00 0.00 58 1014.3
20260906020552 69 276 0.0 0.0 0.00 0.00 0.00 57 1014.2
20260906020057 69 277 0.0 0.0 0.00 0.00 0.00 57 1014.2
20260906015549 69 277 0.0 0.0 0.00 0.00 0.00 57 1014.3
20260906015049 69 277 0.0 0.0 0.00 0.00 0.00 57 1014.2
20260906014548 69 277 0.0 0.0 0.00 0.00 0.00 58 1014.3
20260906014046 69 277 0.0 0.0 0.00 0.00 0.00 59 1014.3
20260906013545 69 277 0.0 0.0 0.00 0.00 0.00 59 1014.3
20260906013045 68 277 0.0 0.0 0.00 0.00 0.00 59 1014.4
20260906012545 68 277 0.0 0.0 0.00 0.00 0.00 59 1014.5
20260906012045 68 277 0.0 0.0 0.00 0.00 0.00 59 1014.5
20260906011547 68 279 0.0 0.0 0.00 0.00 0.00 59 1014.4
20260906011044 68 223 0.0 0.0 0.00 0.00 0.00 60 1014.4
20260906010544 68 257 0.0 0.0 0.00 0.00 0.00 61 1014.5
20260906010044 67 213 0.0 0.0 0.00 0.00 0.00 61 1014.6
20260906005544 67 202 0.0 0.0 0.00 0.00 0.00 63 1014.6
20260906005044 66 232 0.0 0.0 0.00 0.00 0.00 62 1014.7
20260906004550 66 263 0.0 0.0 0.00 0.00 0.00 62 1014.6
20260906004044 66 158 0.0 0.0 0.00 0.00 0.00 64 1014.7
20260906003544 66 159 0.0 0.0 0.00 0.00 0.00 63 1014.8
20260906003049 66 201 0.0 0.0 0.00 0.00 0.00 63 1014.9
20260906002543 66 198 0.0 0.0 0.00 0.00 0.00 61 1014.9
20260906002044 67 179 0.0 0.0 0.00 0.00 0.00 60 1014.8
20260906001545 67 198 0.0 0.0 0.00 0.00 0.00 58 1014.8
20260906001040 67 238 0.0 0.0 0.00 0.00 0.00 58 1014.8
20260906000539 68 190 0.0 0.0 0.00 0.00 0.00 57 1014.8
20260906000038 68 250 0.0 0.0 0.00 0.00 0.00 55 1014.7
20260905235539 68 256 0.0 0.0 0.00 0.00 0.00 55 1014.8
20260905235034 68 248 0.0 0.0 0.00 0.00 0.00 54 1014.7
20260905234534 69 285 0.0 0.0 0.00 0.00 0.00 54 1014.6
20260905234032 69 279 0.0 0.0 0.00 0.00 0.00 54 1014.7
20260905233531 69 290 0.0 0.0 0.00 0.00 0.00 53 1014.6
20260905233032 69 286 0.0 0.0 0.00 0.00 0.00 53 1014.4
20260905232528 70 291 0.0 0.0 0.00 0.00 0.00 53 1014.6
20260905232029 70 285 0.0 0.0 0.00 0.00 0.00 52 1014.6
20260905231533 71 274 0.0 0.0 0.00 0.00 0.00 51 1014.6
20260905231026 72 306 0.0 0.0 0.00 0.00 0.00 49 1014.5
20260905230521 73 298 0.0 0.0 0.00 0.00 0.00 47 1014.6
20260905230020 74 288 0.0 0.0 0.00 0.00 0.00 45 1014.6
20260905225519 75 269 0.0 0.0 0.00 0.00 0.00 44 1014.5
20260905225017 76 281 0.0 0.0 0.00 0.00 0.00 44 1014.4
20260905224521 77 279 0.0 0.0 0.00 0.00 0.00 42 1014.4
20260905224023 78 263 0.0 0.0 0.00 0.00 0.00 40 1014.4
20260905223512 78 355 0.0 0.0 0.00 0.00 0.00 39 1014.4
20260905223011 78 333 0.0 0.0 0.00 0.00 0.00 38 1014.4
20260905222510 77 78 0.0 0.0 0.00 0.00 0.00 38 1014.4
20260905222008 77 96 0.0 0.0 0.00 0.00 0.00 39 1014.4
20260905221506 76 321 0.0 0.0 0.00 0.00 0.00 39 1014.5
20260905221005 76 48 0.0 0.0 0.00 0.00 0.00 41 1014.6
20260905220506 75 305 0.0 0.0 0.00 0.00 0.00 43 1014.6
20260905220002 75 329 0.0 0.0 0.00 0.00 0.00 46 1014.6
20260905215601 75 330 0.0 0.0 0.00 0.00 0.00 42 1014.6
20260905215101 75 142 0.0 0.0 0.00 0.00 0.00 40 1014.8
20260905214606 74 144 0.0 0.0 0.00 0.00 0.00 39 1014.7
20260905214057 73 223 0.0 0.0 0.00 0.00 0.00 42 1014.7
20260905213554 73 165 0.0 0.0 0.00 0.00 0.00 43 1014.8
20260905213055 73 154 0.0 0.0 0.00 0.00 0.00 44 1014.8
20260905212556 73 168 0.0 0.0 0.00 0.00 0.00 43 1014.9
20260905212050 73 185 0.0 0.0 0.00 0.00 0.00 43 1014.9
20260905211550 73 198 0.0 0.0 0.00 0.00 0.00 42 1015.0
20260905211047 73 280 0.0 0.0 0.00 0.00 0.00 43 1014.9
20260905210547 73 279 0.0 0.0 0.00 0.00 0.00 43 1014.9
20260905210053 73 122 0.0 0.0 0.00 0.00 0.00 45 1015.1
20260905205544 73 103 0.0 0.0 0.00 0.01 0.00 44 1015.1
20260905205042 74 61 0.0 0.0 0.00 0.01 0.00 43 1015.1
20260905204543 74 61 0.0 0.0 0.00 0.01 0.00 43 1015.1
20260905204039 74 34 0.0 0.0 0.00 0.01 0.00 43 1015.1
20260905203538 75 107 0.0 0.0 0.00 0.01 0.00 44 1015.2
20260905203038 75 52 0.0 0.0 0.00 0.01 0.00 44 1015.2
20260905202535 74 154 0.0 0.0 0.00 0.01 0.00 45 1015.1
20260905202033 74 32 0.0 0.0 0.00 0.01 0.00 46 1015.2
20260905201531 73 70 0.0 0.0 0.00 0.01 0.00 47 1015.2
20260905201030 73 55 0.0 0.0 0.00 0.01 0.00 48 1015.2
20260905200533 72 17 0.0 0.0 0.00 0.01 0.00 49 1015.2
20260905200029 72 29 0.0 0.0 0.00 0.01 0.00 50 1015.4
20260905195526 71 193 0.0 0.0 0.00 0.01 0.00 52 1015.3
20260905195024 70 70 0.0 0.0 0.00 0.01 0.00 54 1015.4
20260905194523 69 325 0.0 0.0 0.00 0.01 0.00 57 1015.6
20260905194021 69 29 0.0 0.0 0.00 0.01 0.00 57 1015.5
20260905193520 69 350 0.0 0.0 0.00 0.01 0.00 60 1015.5
20260905193018 68 344 0.0 0.0 0.00 0.01 0.00 60 1015.6
20260905192520 68 325 0.0 0.0 0.00 0.01 0.00 62 1015.7
20260905192015 67 302 0.0 0.0 0.00 0.01 0.00 62 1015.8
20260905191514 67 286 0.0 0.0 0.00 0.01 0.00 62 1015.8
20260905191012 66 273 0.0 0.0 0.00 0.01 0.00 64 1015.9
20260905190513 66 273 0.0 0.0 0.00 0.01 0.00 64 1015.9
20260905190023 65 247 0.0 0.0 0.00 0.01 0.00 65 1016.1
20260905185508 65 247 0.0 0.0 0.00 0.01 0.00 65 1016.1
20260905185010 65 246 0.0 0.0 0.00 0.01 0.00 65 1016.2
20260905184509 64 237 0.0 0.0 0.00 0.01 0.00 66 1016.2
20260905184007 64 236 0.0 0.0 0.00 0.01 0.00 65 1016.3
20260905183503 63 277 0.0 0.0 0.00 0.01 0.00 66 1016.4
20260905183002 63 277 0.0 0.0 0.00 0.01 0.00 66 1016.4
20260905182600 63 263 0.0 0.0 0.00 0.01 0.00 66 1016.4
20260905182059 62 263 0.0 0.0 0.00 0.01 0.00 66 1016.4
20260905181557 62 263 0.0 0.0 0.00 0.01 0.00 66 1016.4
20260905181055 61 263 0.0 0.0 0.00 0.01 0.00 65 1016.5
20260905180554 61 263 0.0 0.0 0.00 0.01 0.00 63 1016.5
20260905180111 61 264 0.0 0.0 0.00 0.01 0.00 59 1016.6
20260905175552 60 264 0.0 0.0 0.00 0.01 0.00 54 1016.7
20260905175052 60 263 0.0 0.0 0.00 0.01 0.00 51 1016.6
20260905174548 60 253 0.0 0.0 0.00 0.01 0.00 50 1016.7
20260905174047 59 275 0.0 0.0 0.00 0.01 0.00 42 1016.7
20260905173545 59 268 0.0 0.0 0.00 0.01 0.00 31 1016.7
20260905173106 59 278 0.0 0.0 0.00 0.01 0.00 29 1016.7
20260905172542 59 278 0.0 0.0 0.00 0.01 0.00 31 1016.8
20260905172041 58 278 0.0 0.0 0.00 0.01 0.00 32 1016.9
20260905171550 58 278 0.0 0.0 0.00 0.01 0.00 32 1016.8
20260905171037 58 276 0.0 0.0 0.00 0.01 0.00 24 1016.7
20260905170536 58 276 0.0 0.0 0.00 0.01 0.00 24 1016.7
20260905170035 58 276 0.0 0.0 0.00 0.01 0.00 28 1016.8
20260905165535 58 275 0.0 0.0 0.00 0.01 0.00 18 1016.8
20260905165032 58 268 0.0 0.0 0.00 0.01 0.00 14 1016.7
20260905164531 57 267 0.0 0.0 0.00 0.01 0.00 10 1016.7
20260905164029 57 263 0.0 0.0 0.00 0.01 0.00 8 1016.7
20260905163528 57 263 0.0 0.0 0.00 0.01 0.00 8 1016.7
20260905163026 57 252 0.0 0.0 0.00 0.01 0.00 6 1016.6
20260905162525 57 252 0.0 0.0 0.00 0.01 0.00 4 1016.6
20260905162023 56 252 0.0 0.0 0.00 0.01 0.00 1 1016.6
20260905161525 56 252 0.0 0.0 0.00 0.01 0.00 1 1016.6
20260905161023 56 252 0.0 0.0 0.00 0.01 0.00 1 1016.7
20260905160519 56 360 0.0 0.0 0.00 0.01 0.00 1 1016.6
20260905160027 55 252 0.0 0.0 0.00 0.01 0.00 1 1016.6
20260905155516 55 252 0.0 0.0 0.00 0.01 0.00 1 1016.6
20260905155016 55 251 0.0 0.0 0.00 0.01 0.00 1 1016.6
20260905154513 55 252 0.0 0.0 0.00 0.01 0.00 1 1016.5
20260905154014 55 252 0.0 0.0 0.00 0.01 0.00 1 1016.6
20260905153510 54 360 0.0 0.0 0.00 0.01 0.00 1 1016.6
20260905153008 54 360 0.0 0.0 0.00 0.01 0.00 1 1016.5
20260905152507 54 360 0.0 0.0 0.00 0.01 0.00 1 1016.6